星链-31659 (STARLINK-31659 )

导读

STARLINK-31659是美国太空探索技术公司(SpaceX)星链互联网卫星星座的一员,于2024年3月19日发射入轨,属于星链项目批量部署的卫星之一。星链项目旨在构建全球卫星互联网星座,为全球各地提供低延迟、高速率的宽带互联网服务,该卫星的发射进一步扩充了星链星座的在轨规模。

基本信息
目录编号:
59254
目录名称:
STARLINK-31659
国际标识:
2024-050A
轨道中心:
EARTH
卫星名称:
星链-31659
卫星全名:
星链-31659 (STARLINK-31659 )
卫星状态:
在轨 (已飞行899 天)
发射日期:
2024-03-19 UTC
国别 :
美国 (US)
星等 :
--
轨道信息
数据来源 国际轨道数据
星历时间: 2026-09-03T20:56:25+0800
17小时前
查看轨道信息
半长轴: 6840.854km
偏心率: 0.0001753
轨道倾角: 53.160°
近地点辐角 104.428°
升交点赤经 68.836°
平近点角 255.692°
近地点: 461.517km
远地点: 463.917km
周期: 93.848分钟
每日圈数: 15.343956
详细信息
固有亮度:
5
最大亮度:
0.3
卫星平台:
Starlink v2.0 mini
覆盖范围:
全球
运营商:
太空探索技术公司
运营商所在国:
美国
制造商(研发单位):
太空探索技术公司
制造商所在国:
美国
使用方式:
暂无
卫星简介
星链(Starlink)计划是由太空探索技术公司(SpaceX)提出的一个巨型低轨卫星互联网星座项目,计划在2019年至2024年间在太空搭建由约1.2万颗卫星组成的“星链”网络,其中1584颗将部署在地球上空550千米处的近地轨道,并从2020年开始工作。该卫星仍在工作。
2D轨道图
3D轨道图
轨道高度分析图
轨道倾角分析图
轨道综合分析图
查看轨道综合分析图
交会数据列表
事件ID 空间交会对象 最接近时刻(TCA) 交会距离 交会风险概率(CRP) 交会风险指数(CRI) 操作
CDM_260829-150805-925406-323721
2026-08-29T
15:08:39+0000
0.556 km
远距离
1.065574E-4 高风险 0.76
CDM_260904-230200-635005-925421
2026-09-04T
23:02:57+0000
1.072 km
极远距离
1.222495E-5 中风险 0.57
CDM_260828-024205-373605-925421
2026-08-28T
02:42:36+0000
2.985 km
极远距离
1.015091E-6 低风险 0.35